This is the latest recevied weather packets stored in our database for station/object WD4ITN. If no packets are shown the sender has not sent any weather packets the latest 10 day(s).
| Time | Temp. | Humidity | Pressure | Rain* | Wind** | Luminosity | Snow |
|---|---|---|---|---|---|---|---|
| 1777912710 | 17.22° C | 55% | 1012.2 hPa | 0 mm | - | - | - |
| 1777912401 | 17.78° C | 54% | 1012.3 hPa | 0 mm | - | - | - |
| 1777912097 | 17.22° C | 53% | 1012.4 hPa | 0 mm | - | - | - |
| 1777911813 | 17.22° C | 57% | 1012.5 hPa | 0 mm | - | - | - |
| 1777911501 | 17.22° C | 54% | 1012.5 hPa | 0 mm | - | - | - |
| 1777911206 | 17.22° C | 54% | 1012.6 hPa | 0 mm | - | - | - |
| 1777910913 | 17.22° C | 56% | 1012.5 hPa | 0 mm | - | - | - |
| 1777910602 | 16.67° C | 53% | 1012.6 hPa | 0 mm | - | - | - |
| 1777910299 | 16.67° C | 54% | 1012.6 hPa | 0 mm | - | - | - |
| 1777909996 | 16.67° C | 55% | 1012.9 hPa | 0 mm | - | - | - |
| 1777909693 | 16.11° C | 53% | 1012.7 hPa | 0 mm | - | - | - |
| 1777909414 | 16.11° C | 56% | 1013.1 hPa | 0 mm | - | - | - |
| 1777909104 | 16.11° C | 55% | 1013.1 hPa | 0 mm | - | - | - |
| 1777908805 | 16.11° C | 56% | 1013 hPa | 0 mm | - | - | - |
| 1777908502 | 16.11° C | 53% | 1013.1 hPa | 0 mm | - | - | - |
| 1777908196 | 15.56° C | 58% | 1013 hPa | 0 mm | - | - | - |
| 1777907900 | 15.56° C | 56% | 1013.3 hPa | 0 mm | - | - | - |
| 1777907595 | 15.56° C | 53% | 1013.1 hPa | 0 mm | - | - | - |
| 1777907000 | 15.56° C | 57% | 1013.1 hPa | 0 mm | - | - | - |
| 1777906408 | 15° C | 57% | 1013.4 hPa | 0 mm | - | - | - |
| 1777906111 | 15° C | 58% | 1013.5 hPa | 0 mm | - | - | - |
| 1777905800 | 15° C | 54% | 1013.6 hPa | 0 mm | - | - | - |
| 1777905500 | 15° C | 57% | 1012.8 hPa | 0 mm | - | - | - |
| 1777905198 | 14.44° C | 58% | 1012.6 hPa | 0 mm | - | - | - |
| 1777904916 | 14.44° C | 59% | 1012.7 hPa | 0 mm | - | - | - |
* Rain since midnight (hover to see other rain measurements)
** Current wind speed in m/s (hover to see current wind gust speed)